Location: Copper Breaks State Park
(34.1132°N, 99.7492°W)
Time: 21:03:43
(UTC-05:00)

Amateur Radio Satellites - All Passes

Search period start: 29 July 2015 20:33
Search period end: 30 July 2015 20:33
Location: Copper Breaks State Park, 34.1132°N, 99.7492°W

Satellite Date Start Highest point End Downlink Frequencies (MHz)
Time Altitude Azimuth
PRISM 29 Jul 20:35:30 20:39:33 58° 101° (E) 20:43:35 437.425
Cubesat XI-IV 29 Jul 20:47:55 20:49:59 12° 271° (W) 20:51:39 437.490
STRAND 1 29 Jul 20:51:49 20:56:56 81° 284° (WNW) 21:02:02 437.568
VERMONT LUNAR 29 Jul 20:52:24 20:55:31 50° 341° (NNW) 20:58:38 437.305
BRITE-PL 29 Jul 21:03:11 21:07:43 56° 260° (W) 21:11:57 437.365/2234.400
COMPASS 1 29 Jul 21:23:56 21:27:47 37° 74° (ENE) 21:31:42 437.405
Oscar 11 29 Jul 21:27:52 21:30:17 15° 69° (ENE) 21:32:53 145.826/435.025
GOMX 1 29 Jul 21:28:28 21:32:43 50° 260° (W) 21:36:48 467.674
DOVE 4 29 Jul 21:30:22 21:34:36 86° 258° (WSW) 21:38:45 437.250
Cosmos 2499 29 Jul 21:30:38 21:38:32 38° 272° (W) 21:46:19 435.465 / 435.565
CUTE 1.7 + AOD 2 29 Jul 21:32:17 21:36:31 80° 79° (ENE) 21:40:50 437.475
SEEDS 29 Jul 21:33:59 21:38:10 65° 76° (ENE) 21:42:24 437.485
CANX-2 29 Jul 21:40:15 21:44:29 72° 259° (W) 21:48:46 2200.000
PCSat 29 Jul 21:40:47 21:44:23 18° 254° (WSW) 21:47:45 145.827
RS-15 29 Jul 21:42:27 21:51:52 38° 108° (ESE) 22:01:47 29.354- 29.394
HO-68 29 Jul 21:42:29 21:49:37 77° 256° (WSW) 21:56:48 435.675
PHONESAT 2.4 29 Jul 21:58:06 22:01:36 76° 154° (SSE) 22:05:07 2401.200-2431.200
CINEMA 3 29 Jul 21:59:54 22:04:02 86° 78° (ENE) 22:08:12 145.822/145.860
ISS 29 Jul 22:07:13 22:10:17 41° 133° (SE) 22:13:23 145.825
AAUSAT CUBESAT 2 29 Jul 22:07:28 22:11:38 74° 258° (WSW) 22:15:51 437.432
AUBIESAT-1 29 Jul 22:12:57 22:15:08 14° 94° (E) 22:17:34 437.475
DELFI C3 29 Jul 22:13:20 22:16:57 32° 73° (ENE) 22:20:37 145.870
ZACube-1 29 Jul 22:21:44 22:25:32 36° 74° (ENE) 22:29:27 437.345
VERMONT LUNAR 29 Jul 22:29:58 22:32:39 24° 357° (N) 22:35:20 437.305
UWE-3 29 Jul 22:39:05 22:43:14 84° 78° (ENE) 22:47:28 435.000/436.395/437.385
FUNcube-1 29 Jul 22:44:20 22:48:27 69° 77° (ENE) 22:52:39 145.935
CUBEBUG 2 29 Jul 22:49:03 22:53:06 54° 260° (W) 22:57:14 437.445
AISAT 29 Jul 22:53:12 22:55:30 15° 68° (ENE) 22:58:00 437.250
COMPASS 1 29 Jul 23:01:15 23:03:38 14° 268° (W) 23:05:49 437.405
Oscar 11 29 Jul 23:02:07 23:06:10 38° 262° (W) 23:10:14 145.826/435.025
UKube-1 29 Jul 23:03:24 23:07:07 29° 72° (ENE) 23:10:53 .
M-CUBED/EXP-1 PRIME 29 Jul 23:13:21 23:18:11 79° 105° (ESE) 23:22:53 437.505
CUBEBUG 1 29 Jul 23:16:03 23:18:09 14° 69° (ENE) 23:20:28 437.445
UNISAT 6 29 Jul 23:16:04 23:19:19 19° 93° (E) 23:22:46 437.425
DX 1 29 Jul 23:26:40 23:30:57 63° 75° (ENE) 23:35:15 434.975-435.025
HUMSAT D 29 Jul 23:30:21 23:34:28 81° 258° (WSW) 23:38:38 437.325/437.525
VELOX 1 29 Jul 23:31:09 23:35:12 38° 73° (ENE) 23:39:19 145.980
ESTCUBE 1 29 Jul 23:32:28 23:36:14 27° 71° (ENE) 23:40:05 437.505/2401.250
PHONESAT 2.4 29 Jul 23:36:33 23:39:46 33° 349° (N) 23:42:59 2401.200-2431.200
POLYITAN 1 29 Jul 23:43:42 23:45:27 13° 91° (E) 23:47:28 437.675
ISS 29 Jul 23:44:35 23:46:53 17° 329° (NNW) 23:49:09 145.825
AUBIESAT-1 29 Jul 23:45:32 23:50:11 53° 290° (WNW) 23:54:41 437.475
BEESAT 3 29 Jul 23:48:14 23:49:54 13° 110° (ESE) 23:51:48 437.485
AIST 1 29 Jul 23:48:34 23:51:34 19° 74° (ENE) 23:54:42
DELFI C3 29 Jul 23:49:41 23:52:08 15° 268° (W) 23:54:25 145.870
RS-15 29 Jul 23:53:17 00:03:54 54° 307° (NW) 00:14:51 29.354- 29.394
Cosmos 2491 29 Jul 23:55:11 00:02:43 33° 73° (ENE) 00:10:26 435.465 / 435.565
50 SAT 29 Jul 23:58:47 00:02:38 79° 258° (WSW) 00:06:33 437.505
TIGRISAT 29 Jul 23:59:28 00:04:06 58° 100° (E) 00:08:44 435.000
ZACube-1 29 Jul 23:59:49 00:02:07 14° 269° (W) 00:04:13 437.345
ANTELSAT 30 Jul 00:00:04 00:04:43 61° 100° (E) 00:09:23 437.575/2403.000
POPSAT HIP 1 30 Jul 00:00:44 00:03:50 20° 94° (E) 00:07:04 437.405
SPROUT 30 Jul 00:02:43 00:04:26 13° 68° (ENE) 00:06:21 437.525
VERMONT LUNAR 30 Jul 00:06:56 00:09:53 34° 14° (NNE) 00:12:49 437.305
QB50P2 30 Jul 00:07:22 00:10:53 25° 96° (E) 00:14:27 145.880/145.840
YUBILEINY 30 Jul 00:15:14 00:20:47 20° 83° (E) 00:26:50 435.215
BUGSAT 1 30 Jul 00:19:04 00:21:56 19° 94° (E) 00:24:57 437.445
TISAT 1 30 Jul 00:24:44 00:26:42 13° 69° (ENE) 00:28:52 437.305
AISAT 30 Jul 00:27:33 00:31:45 42° 261° (W) 00:35:57 437.250
DUCHIFAT 1 30 Jul 00:34:30 00:38:37 50° 100° (E) 00:42:46 145.980
QB50P1 30 Jul 00:35:41 00:39:51 55° 100° (E) 00:44:03 145.935-145.965
NANOSAT C BR1 30 Jul 00:37:59 00:42:11 58° 100° (E) 00:46:22 145.865
BEESAT 2 30 Jul 00:39:59 00:43:48 40° 114° (ESE) 00:47:41 435.950
UKube-1 30 Jul 00:40:07 00:43:17 19° 266° (W) 00:46:19 .
CUBEBUG 1 30 Jul 00:50:00 00:54:11 44° 261° (W) 00:58:20 437.445
M-CUBED/EXP-1 PRIME 30 Jul 00:51:03 00:52:21 11° 299° (WNW) 00:53:20 437.505
UNISAT 6 30 Jul 00:51:55 00:56:12 35° 287° (WNW) 01:00:26 437.425
VELOX 1 30 Jul 01:09:13 01:11:56 15° 268° (W) 01:14:28 145.980
ESTCUBE 1 30 Jul 01:09:25 01:13:04 23° 265° (W) 01:16:38 437.505/2401.250
PHONESAT 2.4 30 Jul 01:15:09 01:18:16 29° 6° (N) 01:21:23 2401.200-2431.200
POLYITAN 1 30 Jul 01:17:32 01:21:36 43° 286° (WNW) 01:25:39 437.675
BEESAT 3 30 Jul 01:23:37 01:27:30 43° 302° (WNW) 01:31:25 437.485
BEESAT 30 Jul 01:25:32 01:27:05 12° 66° (ENE) 01:28:54 436.000
AIST 1 30 Jul 01:25:40 01:29:14 25° 269° (W) 01:32:43
SPROUT 30 Jul 01:36:02 01:40:08 46° 261° (W) 01:44:15 437.525
POPSAT HIP 1 30 Jul 01:36:04 01:39:42 27° 288° (WNW) 01:43:16 437.405
TIGRISAT 30 Jul 01:38:18 01:40:24 13° 293° (WNW) 01:42:14 435.000
ANTELSAT 30 Jul 01:39:11 01:41:03 12° 293° (WNW) 01:42:37 437.575/2403.000
QB50P2 30 Jul 01:43:20 01:46:39 22° 289° (WNW) 01:49:53 145.880/145.840
SWISSCUBE 30 Jul 01:43:36 01:47:04 21° 69° (ENE) 01:50:42 437.505
VERMONT LUNAR 30 Jul 01:43:38 01:46:42 50° 209° (SSW) 01:49:44 437.305
Cosmos 2491 30 Jul 01:51:37 01:59:49 46° 270° (W) 02:07:52 435.465 / 435.565
BUGSAT 1 30 Jul 01:53:59 01:57:25 26° 288° (WNW) 02:00:47 437.445
AIST 2 30 Jul 01:55:11 01:59:21 61° 116° (ESE) 02:03:33 435.215
TISAT 1 30 Jul 01:58:11 02:02:09 40° 262° (W) 02:06:06 437.305
ITUPSAT 1 30 Jul 02:02:36 02:06:43 29° 71° (ENE) 02:10:54 437.325
YUBILEINY 30 Jul 02:08:12 02:16:52 71° 279° (W) 02:25:36 435.215
O/OREOS (USA 219) 30 Jul 02:12:18 02:16:04 28° 104° (ESE) 02:19:57 437.305
DUCHIFAT 1 30 Jul 02:12:32 02:14:02 11° 292° (WNW) 02:15:17 145.980
RS-15 30 Jul 02:13:22 02:19:57 16° 336° (NNW) 02:26:13 29.354- 29.394
QB50P1 30 Jul 02:14:16 02:15:18 11° 292° (WNW) 02:16:03 145.935-145.965
BEESAT 2 30 Jul 02:19:24 02:22:04 16° 311° (NW) 02:24:36 435.950
Cosmos 2504 30 Jul 02:25:29 02:27:16 11° 81° (E) 02:29:42 435.465 / 435.565
Oscar 19 30 Jul 02:37:14 02:42:03 40° 98° (E) 02:46:55 437.125/150
PHONESAT 2.4 30 Jul 02:53:04 02:56:34 74° 23° (NNE) 03:00:01 2401.200-2431.200
KKS-1 30 Jul 02:56:47 02:59:30 17° 69° (ENE) 03:02:23 437.445
BEESAT 30 Jul 02:59:42 03:04:27 64° 259° (W) 03:09:13 436.000
Gurwin Techsat 1B 30 Jul 03:16:36 03:21:02 27° 95° (E) 03:25:32 435.225
SWISSCUBE 30 Jul 03:20:21 03:24:44 34° 263° (W) 03:29:05 437.505
JAS-2 30 Jul 03:24:59 03:29:33 17° 88° (E) 03:34:33 435.910
AIST 2 30 Jul 03:36:24 03:38:21 13° 313° (NW) 03:40:08 435.215
ITUPSAT 1 30 Jul 03:40:41 03:44:36 24° 265° (W) 03:48:25 437.325
O/OREOS (USA 219) 30 Jul 03:52:01 03:55:31 22° 299° (WNW) 03:58:57 437.305
ITAMSAT 1 30 Jul 03:52:37 03:57:42 55° 100° (E) 04:02:46 435.822/435.867
JUGNU 30 Jul 04:02:10 04:03:09 10° 164° (SSE) 04:04:17 437.505
STARS 30 Jul 04:10:41 04:15:02 71° 76° (ENE) 04:19:23 437.465
Cosmos 2504 30 Jul 04:11:26 04:18:26 88° 276° (W) 04:25:55 435.465 / 435.565
YUBILEINY 30 Jul 04:13:45 04:15:42 10° 300° (WNW) 04:16:47 435.215
Oscar 19 30 Jul 04:17:18 04:21:10 21° 291° (WNW) 04:24:53 437.125/150
PHONESAT 2.4 30 Jul 04:31:44 04:34:17 19° 216° (SW) 04:36:46 2401.200-2431.200
KKS-1 30 Jul 04:31:47 04:35:53 36° 262° (W) 04:39:58 437.445
RS-15 30 Jul 04:35:08 04:39:23 12° 13° (NNE) 04:44:03 29.354- 29.394
ISS 30 Jul 04:38:49 04:40:20 13° 28° (NNE) 04:41:56 145.825
CUSAT 1 30 Jul 04:51:06 04:53:20 18° 97° (E) 04:55:26 437.405
Gurwin Techsat 1B 30 Jul 04:56:21 05:01:01 31° 289° (WNW) 05:05:34 435.225
MOZHAYETS 4 30 Jul 05:04:33 05:09:00 48° 74° (ENE) 05:13:29
JAS-2 30 Jul 05:07:32 05:15:25 82° 284° (WNW) 05:23:09 435.910
AO-7 30 Jul 05:14:10 05:22:12 51° 101° (ESE) 05:30:12 29.400- 29.500
HORYU 2 30 Jul 05:32:02 05:36:33 81° 101° (E) 05:41:03 437.375
ITAMSAT 1 30 Jul 05:33:44 05:36:48 15° 294° (WNW) 05:39:36 435.822/435.867
JUGNU 30 Jul 05:47:38 05:51:30 18° 173° (S) 05:55:22 437.505
SRMSAT 30 Jul 05:49:38 05:50:23 10° 164° (SSE) 05:51:17 437.500
DANDE 30 Jul 05:55:02 05:58:54 73° 277° (W) 06:01:57 436.750
Cosmos 2504 30 Jul 06:09:18 06:12:04 12° 297° (WNW) 06:14:16 435.465 / 435.565
ISS 30 Jul 06:13:53 06:17:08 75° 225° (SW) 06:20:23 145.825
STRAND 1 30 Jul 06:30:18 06:30:20 10° 64° (ENE) 06:30:44 437.568
CUTE-I 30 Jul 06:44:07 06:46:29 13° 90° (E) 06:49:10 437.470
MOZHAYETS 4 30 Jul 06:44:14 06:46:33 13° 270° (W) 06:48:35
RS-15 30 Jul 06:46:36 06:57:00 36° 45° (NE) 07:07:58 29.354- 29.394
GONETS M04 30 Jul 06:49:36 06:57:49 50° 91° (E) 07:06:06
CUBESAT XI-V 30 Jul 06:51:58 06:56:33 56° 75° (ENE) 07:01:10 437.345
JAS-2 30 Jul 06:55:07 06:59:29 15° 299° (WNW) 07:03:22 435.910
AO-7 30 Jul 07:07:31 07:14:42 32° 297° (WNW) 07:21:40 29.400- 29.500
PRISM 30 Jul 07:22:09 07:25:36 26° 71° (ENE) 07:29:07 437.425
Cubesat XI-IV 30 Jul 07:25:24 07:30:17 37° 97° (E) 07:35:13 437.490
SRMSAT 30 Jul 07:35:02 07:38:53 18° 173° (S) 07:42:45 437.500
JUGNU 30 Jul 07:35:46 07:39:52 19° 183° (S) 07:43:56 437.505
STRAND 1 30 Jul 08:03:47 08:08:56 83° 255° (WSW) 08:14:07 437.568
Cosmos 2499 30 Jul 08:10:18 08:16:33 33° 87° (E) 08:23:20 435.465 / 435.565
CUTE-I 30 Jul 08:21:48 08:27:03 60° 286° (WNW) 08:32:15 437.470
CUBESAT XI-V 30 Jul 08:32:43 08:34:25 11° 270° (W) 08:35:46 437.345
GONETS M04 30 Jul 08:47:26 08:54:59 31° 288° (WNW) 09:02:18
PRISM 30 Jul 08:57:48 09:01:01 21° 265° (W) 09:04:07 437.425
RS-15 30 Jul 08:58:38 09:10:23 68° 246° (WSW) 09:22:26 29.354- 29.394
Cubesat XI-IV 30 Jul 09:06:01 09:10:12 23° 292° (WNW) 09:14:14 437.490
BRITE-PL 30 Jul 09:10:44 09:15:04 56° 100° (E) 09:19:42 437.365/2234.400
HO-68 30 Jul 09:15:13 09:20:51 25° 94° (E) 09:26:42 435.675
CUTE 1.7 + AOD 2 30 Jul 09:22:15 09:25:09 18° 93° (E) 09:28:12 437.475
SRMSAT 30 Jul 09:23:16 09:27:24 20° 183° (S) 09:31:31 437.500
SEEDS 30 Jul 09:23:30 09:25:48 15° 92° (E) 09:28:16 437.485
JUGNU 30 Jul 09:25:22 09:28:12 14° 193° (SSW) 09:30:56 437.505
CANX-2 30 Jul 09:29:46 09:33:19 25° 95° (E) 09:36:55 2200.000
DOVE 4 30 Jul 09:32:23 09:36:34 34° 97° (E) 09:41:01 437.250
GOMX 1 30 Jul 09:32:51 09:37:19 58° 101° (E) 09:42:06 467.674
BEESAT 3 30 Jul 09:45:34 09:49:12 32° 55° (NE) 09:52:48 437.485
AAUSAT CUBESAT 2 30 Jul 09:54:44 09:58:00 22° 94° (E) 10:01:21 437.432
M-CUBED/EXP-1 PRIME 30 Jul 09:57:55 10:01:39 51° 70° (ENE) 10:05:46 437.505
CINEMA 3 30 Jul 09:58:05 10:02:07 28° 96° (E) 10:06:21 145.822/145.860
Cosmos 2499 30 Jul 10:02:53 10:09:35 37° 286° (WNW) 10:16:39 435.465 / 435.565
UNISAT 6 30 Jul 10:14:25 10:14:47 10° 66° (ENE) 10:15:27 437.425
ZACube-1 30 Jul 10:16:31 10:17:11 10° 89° (E) 10:18:11 437.345
AIST 2 30 Jul 10:21:42 10:23:57 14° 48° (NE) 10:26:20 435.215
SO-50 30 Jul 10:25:25 10:30:03 62° 116° (ESE) 10:34:52 436.795
AUBIESAT-1 30 Jul 10:29:19 10:33:10 74° 254° (WSW) 10:37:24 437.475
UWE-3 30 Jul 10:32:53 10:36:32 24° 95° (E) 10:40:20 435.000/436.395/437.385
PCSat 30 Jul 10:33:37 10:39:01 81° 295° (WNW) 10:44:29 145.827
FUNcube-1 30 Jul 10:37:01 10:40:10 19° 93° (E) 10:43:29 145.935
BEESAT 2 30 Jul 10:40:02 10:44:05 76° 243° (WSW) 10:48:04 435.950
CUBEBUG 2 30 Jul 10:43:18 10:47:40 40° 98° (E) 10:52:08 437.445
COMPASS 1 30 Jul 10:46:06 10:50:19 67° 284° (WNW) 10:54:29 437.405
BRITE-PL 30 Jul 10:51:54 10:53:19 11° 291° (WNW) 10:54:28 437.365/2234.400
Oscar 11 30 Jul 10:52:52 10:57:06 48° 99° (E) 11:01:18 145.826/435.025
TIGRISAT 30 Jul 10:55:03 10:58:47 30° 72° (ENE) 11:02:38 435.000
ANTELSAT 30 Jul 10:55:48 10:59:36 32° 72° (ENE) 11:03:33 437.575/2403.000
CUTE 1.7 + AOD 2 30 Jul 10:57:20 11:01:08 30° 287° (WNW) 11:04:51 437.475
SEEDS 30 Jul 10:57:49 11:01:45 37° 287° (WNW) 11:05:39 437.485
QB50P2 30 Jul 10:58:29 11:00:08 12° 68° (ENE) 11:02:00 145.880/145.840
HO-68 30 Jul 11:01:58 11:08:54 52° 290° (WNW) 11:15:46 435.675
CANX-2 30 Jul 11:05:45 11:09:08 22° 289° (WNW) 11:12:23 2200.000
DOVE 4 30 Jul 11:10:44 11:14:10 20° 289° (WNW) 11:17:37 437.250
SRMSAT 30 Jul 11:12:57 11:15:54 14° 192° (SSW) 11:18:45 437.500
GOMX 1 30 Jul 11:13:23 11:15:09 12° 291° (WNW) 11:16:38 467.674
RS-15 30 Jul 11:17:43 11:21:24 11° 260° (W) 11:23:35 29.354- 29.394
HUMSAT D 30 Jul 11:18:36 11:21:54 22° 94° (E) 11:25:19 437.325/437.525
DX 1 30 Jul 11:20:14 11:22:30 14° 92° (E) 11:24:59 434.975-435.025
DUCHIFAT 1 30 Jul 11:23:46 11:27:01 23° 72° (ENE) 11:30:22 145.980
BEESAT 3 30 Jul 11:24:14 11:26:54 17° 249° (WSW) 11:29:24 437.485
QB50P1 30 Jul 11:25:13 11:28:38 25° 72° (ENE) 11:32:07 145.935-145.965
NANOSAT C BR1 30 Jul 11:27:17 11:30:44 26° 72° (ENE) 11:34:16 145.865
AAUSAT CUBESAT 2 30 Jul 11:30:08 11:33:32 23° 288° (WNW) 11:36:50 437.432
DELFI C3 30 Jul 11:30:22 11:34:27 85° 283° (WNW) 11:38:29 145.870
CINEMA 3 30 Jul 11:35:22 11:39:12 25° 288° (WNW) 11:43:04 145.822/145.860
50 SAT 30 Jul 11:39:04 11:41:22 15° 93° (E) 11:43:50 437.505
UNISAT 6 30 Jul 11:46:50 11:51:05 60° 260° (W) 11:55:25 437.425
ZACube-1 30 Jul 11:49:28 11:53:57 59° 284° (WNW) 11:58:28 437.345
AIST 2 30 Jul 11:58:49 12:02:50 47° 245° (WSW) 12:06:46 435.215
POLYITAN 1 30 Jul 12:06:22 12:10:34 85° 75° (ENE) 12:14:46 437.675
SO-50 30 Jul 12:08:08 12:11:06 16° 314° (NW) 12:13:55 436.795
UWE-3 30 Jul 12:09:05 12:13:01 28° 288° (WNW) 12:16:56 435.000/436.395/437.385
FUNcube-1 30 Jul 12:12:28 12:16:34 33° 287° (WNW) 12:20:38 145.935
AIST 1 30 Jul 12:15:06 12:17:17 14° 88° (E) 12:19:41
CUBEBUG 2 30 Jul 12:20:59 12:24:05 17° 290° (WNW) 12:27:02 437.445
AISAT 30 Jul 12:21:39 12:25:53 46° 99° (E) 12:30:08 437.250
PCSat 30 Jul 12:21:55 12:23:25 11° 315° (NW) 12:24:37 145.827
YUBILEINY 30 Jul 12:23:06 12:31:33 49° 77° (ENE) 12:40:04 435.215
POPSAT HIP 1 30 Jul 12:24:23 12:28:31 58° 260° (W) 12:32:39 437.405
O/OREOS (USA 219) 30 Jul 12:25:33 12:29:34 30° 64° (ENE) 12:33:40 437.305
UKube-1 30 Jul 12:29:46 12:34:06 87° 283° (WNW) 12:38:24 .
Oscar 11 30 Jul 12:30:54 12:32:53 13° 292° (WNW) 12:34:39 145.826/435.025
QB50P2 30 Jul 12:31:38 12:35:40 45° 261° (W) 12:39:43 145.880/145.840
TIGRISAT 30 Jul 12:32:33 12:35:36 18° 267° (W) 12:38:34 435.000
ANTELSAT 30 Jul 12:33:33 12:36:31 17° 268° (W) 12:39:21 437.575/2403.000
BUGSAT 1 30 Jul 12:39:33 12:43:35 63° 259° (W) 12:47:36 437.445
CUBEBUG 1 30 Jul 12:42:23 12:46:29 42° 99° (E) 12:50:37 437.445
Cosmos 2491 30 Jul 12:51:19 12:59:21 43° 89° (E) 13:07:30 435.465 / 435.565
HUMSAT D 30 Jul 12:53:59 12:57:37 26° 288° (WNW) 13:01:10 437.325/437.525
DX 1 30 Jul 12:54:54 12:58:57 39° 287° (WNW) 13:02:58 434.975-435.025
DUCHIFAT 1 30 Jul 12:59:24 13:02:45 23° 265° (W) 13:06:02 145.980
QB50P1 30 Jul 13:01:14 13:04:28 21° 266° (W) 13:07:36 145.935-145.965
VELOX 1 30 Jul 13:01:16 13:05:38 61° 284° (WNW) 13:09:57 145.980
NANOSAT C BR1 30 Jul 13:03:24 13:06:33 20° 266° (W) 13:09:36 145.865
ESTCUBE 1 30 Jul 13:04:43 13:09:13 83° 283° (WNW) 13:13:41 437.505/2401.250
50 SAT 30 Jul 13:12:30 13:16:02 30° 287° (WNW) 13:19:30 437.505
SPROUT 30 Jul 13:26:17 13:30:17 38° 98° (E) 13:34:19 437.525
TISAT 1 30 Jul 13:46:07 13:50:02 38° 98° (E) 13:53:59 437.305
Oscar 19 30 Jul 13:50:30 13:55:11 39° 72° (ENE) 13:59:57 437.125/150
AIST 1 30 Jul 13:50:35 13:54:39 36° 281° (W) 13:58:40
AISAT 30 Jul 13:59:51 14:02:06 13° 292° (WNW) 14:04:09 437.250
Cosmos 2504 30 Jul 14:02:04 14:08:35 25° 71° (ENE) 14:15:32 435.465 / 435.565
O/OREOS (USA 219) 30 Jul 14:05:23 14:08:50 21° 258° (WSW) 14:12:09 437.305
CUBEBUG 1 30 Jul 14:20:13 14:22:31 14° 292° (WNW) 14:24:37 437.445
YUBILEINY 30 Jul 14:20:35 14:28:05 31° 274° (W) 14:35:18 435.215
Gurwin Techsat 1B 30 Jul 14:34:05 14:38:37 30° 70° (ENE) 14:43:16 435.225
Cosmos 2491 30 Jul 14:48:26 14:56:22 35° 287° (WNW) 15:04:05 435.465 / 435.565
SPROUT 30 Jul 15:03:31 15:06:05 15° 291° (WNW) 15:08:28 437.525
BEESAT 30 Jul 15:03:47 15:08:20 43° 99° (E) 15:12:52 436.000
ITAMSAT 1 30 Jul 15:06:46 15:11:53 58° 74° (ENE) 15:17:01 435.822/435.867
JAS-2 30 Jul 15:16:35 15:21:29 29° 66° (ENE) 15:27:04 435.910
TISAT 1 30 Jul 15:23:06 15:25:30 15° 291° (WNW) 15:27:44 437.305
SWISSCUBE 30 Jul 15:23:52 15:28:41 82° 104° (ESE) 15:33:26 437.505
CUSAT 1 30 Jul 15:28:03 15:30:32 15° 77° (ENE) 15:33:38 437.405
Oscar 19 30 Jul 15:30:57 15:34:43 20° 267° (W) 15:38:19 437.125/150
ITUPSAT 1 30 Jul 15:43:56 15:48:43 68° 284° (WNW) 15:53:26 437.325
Cosmos 2504 30 Jul 15:53:03 16:01:21 62° 268° (W) 16:09:46 435.465 / 435.565
STARS 30 Jul 16:05:10 16:08:01 17° 93° (E) 16:11:04 437.465
AO-7 30 Jul 16:08:51 16:16:45 50° 67° (ENE) 16:24:46 29.400- 29.500
Gurwin Techsat 1B 30 Jul 16:14:03 16:18:35 28° 265° (W) 16:23:02 435.225
KKS-1 30 Jul 16:26:07 16:30:30 55° 100° (E) 16:34:53 437.445
HORYU 2 30 Jul 16:26:32 16:30:45 45° 74° (ENE) 16:35:02 437.375
DANDE 30 Jul 16:35:34 16:39:17 49° 82° (E) 16:44:16 436.750
BEESAT 30 Jul 16:42:48 16:45:52 17° 292° (WNW) 16:48:42 436.000
ITAMSAT 1 30 Jul 16:49:05 16:51:49 14° 269° (W) 16:54:15 435.822/435.867
JAS-2 30 Jul 17:01:01 17:06:24 38° 265° (W) 17:12:23 435.910
MOZHAYETS 4 30 Jul 17:04:47 17:07:26 16° 91° (E) 17:10:17
GONETS M04 30 Jul 17:05:44 17:11:20 19° 66° (ENE) 17:17:27
CUSAT 1 30 Jul 17:08:52 17:12:57 41° 263° (W) 17:18:15 437.405
STARS 30 Jul 17:40:34 17:44:35 34° 287° (WNW) 17:48:32 437.465
CUTE-I 30 Jul 18:02:12 18:05:27 17° 67° (ENE) 18:08:55 437.470
AO-7 30 Jul 18:02:29 18:09:48 32° 263° (W) 18:16:56 29.400- 29.500
KKS-1 30 Jul 18:05:00 18:06:43 12° 293° (WNW) 18:08:11 437.445
HORYU 2 30 Jul 18:05:32 18:07:41 13° 269° (W) 18:09:35 437.375
VERMONT LUNAR 30 Jul 18:15:04 18:16:44 14° 143° (SE) 18:18:29 437.305
MOZHAYETS 4 30 Jul 18:40:32 18:44:54 41° 286° (WNW) 18:49:11
Cubesat XI-IV 30 Jul 18:43:39 18:48:41 43° 72° (ENE) 18:53:46 437.490
CUBESAT XI-V 30 Jul 18:53:28 18:56:35 19° 93° (E) 18:59:52 437.345
GONETS M04 30 Jul 19:00:31 19:09:14 76° 266° (W) 19:17:56
SO-50 30 Jul 19:01:08 19:04:59 23° 50° (NE) 19:08:52 436.795
PCSat 30 Jul 19:25:32 19:30:30 36° 57° (ENE) 19:35:29 145.827
CUTE-I 30 Jul 19:39:55 19:45:08 53° 260° (W) 19:50:23 437.470
HO-68 30 Jul 19:43:05 19:45:54 13° 59° (ENE) 19:49:10 435.675
VERMONT LUNAR 30 Jul 19:50:00 19:53:11 87° 346° (NNW) 19:56:22 437.305
Cosmos 2499 30 Jul 19:56:28 20:05:09 63° 80° (E) 20:13:56 435.465 / 435.565
STRAND 1 30 Jul 20:18:19 20:23:12 45° 99° (E) 20:28:04 437.568
BRITE-PL 30 Jul 20:18:30 20:22:45 41° 75° (ENE) 20:26:48 437.365/2234.400
CANX-2 30 Jul 20:20:57 20:22:31 12° 68° (ENE) 20:24:19 2200.000
Cubesat XI-IV 30 Jul 20:25:05 20:29:01 20° 267° (W) 20:32:44 437.490
